GW5705 Weather Reports


time (UTC)temp
C
wind
direction
speed
KPH
gust
KPH
rain 1hr
cm
rain 24hr
cm
rain mn
cm
humidity
%
barometer
mb
20260504151022 12 252 8.0 11.3 0.00 0.00 0.00 45 1019.3
20260504141024 10 305 4.8 17.7 0.00 0.00 0.00 49 1018.7
20260504081021 6 284 6.4 14.5 0.00 0.00 0.00 42 1019.1
20260504050022 6 63 1.6 4.8 0.00 0.00 0.00 40 1019.6
20260504045023 6 333 0.0 4.8 0.00 0.00 0.00 42 1019.5
20260504044026 5 180 0.0 3.2 0.00 0.00 0.00 42 1019.5
20260504043023 6 180 0.0 3.2 0.00 0.00 0.00 41 1019.5
20260504042023 6 116 0.0 3.2 0.00 0.00 0.00 41 1019.6
20260504041022 6 74 0.0 3.2 0.00 0.00 0.00 41 1019.5
20260504040022 6 298 4.8 9.7 0.00 0.00 0.00 40 1019.4
20260504035021 6 275 4.8 8.0 0.00 0.00 0.00 40 1019.4
20260504034021 6 300 3.2 6.4 0.00 0.00 0.00 41 1019.3
20260504033022 6 251 3.2 4.8 0.00 0.00 0.00 40 1019.4
20260504032021 6 265 3.2 4.8 0.00 0.00 0.00 41 1019.5
20260504031024 6 255 3.2 3.2 0.00 0.00 0.00 41 1019.5
20260504030022 6 239 4.8 6.4 0.00 0.00 0.00 42 1019.4
20260504025022 6 229 3.2 4.8 0.00 0.00 0.00 42 1019.4
20260504024024 6 219 3.2 6.4 0.00 0.00 0.00 41 1019.5
20260504023021 6 214 4.8 6.4 0.00 0.00 0.00 42 1019.6
20260504022022 6 208 3.2 6.4 0.00 0.00 0.00 43 1019.4
20260504021023 6 204 3.2 9.7 0.00 0.00 0.00 44 1019.4
20260504020022 6 174 4.8 6.4 0.00 0.00 0.00 44 1019.5
20260504015021 6 182 4.8 8.0 0.00 0.00 0.00 41 1019.4
20260504014022 6 161 3.2 6.4 0.00 0.00 0.00 39 1019.4
20260504013023 6 202 4.8 8.0 0.00 0.00 0.00 37 1019.2
20260504012021 7 204 6.4 8.0 0.00 0.00 0.00 35 1019.0
20260504011022 6 240 3.2 4.8 0.00 0.00 0.00 35 1019.0
20260504010021 6 232 3.2 4.8 0.00 0.00 0.00 35 1019.1
20260504005022 6 258 3.2 4.8 0.00 0.00 0.00 37 1019.0
20260504004021 6 270 4.8 6.4 0.00 0.00 0.00 36 1018.9
20260504003022 6 273 4.8 6.4 0.00 0.00 0.00 37 1018.9
20260504002021 6 277 4.8 4.8 0.00 0.00 0.00 37 1018.9
20260504001021 6 297 3.2 4.8 0.00 0.00 0.00 37 1018.9
20260504000022 7 288 3.2 4.8 0.00 0.00 0.00 37 1018.9
20260503235023 7 312 0.0 3.2 0.00 0.00 0.00 36 1018.8
20260503234022 7 286 3.2 9.7 0.00 0.00 0.00 35 1018.8
20260503233021 8 262 3.2 6.4 0.00 0.00 0.00 33 1018.8
20260503232021 8 297 4.8 8.0 0.00 0.00 0.00 32 1018.7
20260503231022 8 275 4.8 14.5 0.00 0.00 0.00 34 1018.6
20260503230021 8 280 4.8 11.3 0.00 0.00 0.00 33 1018.6
20260503225023 8 281 8.0 17.7 0.00 0.00 0.00 32 1018.5
20260503224022 8 290 8.0 12.9 0.00 0.00 0.00 32 1018.5
20260503223021 8 285 9.7 14.5 0.00 0.00 0.00 31 1018.3
20260503222022 9 271 3.2 16.1 0.00 0.00 0.00 31 1018.3
20260503221024 9 285 8.0 11.3 0.00 0.00 0.00 32 1018.5
20260503220024 10 54 1.6 14.5 0.00 0.00 0.00 31 1018.4
20260503215022 9 287 9.7 22.5 0.00 0.00 0.00 31 1018.4
20260503214021 10 287 8.0 14.5 0.00 0.00 0.00 30 1018.4
20260503213022 10 291 6.4 20.9 0.00 0.00 0.00 31 1018.3
20260503212023 9 294 9.7 16.1 0.00 0.00 0.00 29 1018.3
20260503211024 10 278 8.0 22.5 0.00 0.00 0.00 30 1018.4
20260503210021 9 315 9.7 16.1 0.00 0.00 0.00 33 1018.5
20260503205026 10 288 6.4 17.7 0.00 0.00 0.00 32 1018.6
20260503204021 11 278 4.8 16.1 0.00 0.00 0.00 31 1018.3
20260503203022 9 342 4.8 19.3 0.00 0.00 0.00 32 1018.4
20260503202021 11 284 4.8 20.9 0.00 0.00 0.00 32 1018.6
20260503201022 10 283 8.0 22.5 0.00 0.00 0.00 31 1018.5
20260503200021 10 243 4.8 6.4 0.00 0.00 0.00 30 1018.7
20260503195021 10 227 3.2 11.3 0.00 0.00 0.00 32 1018.8
20260503194022 10 268 4.8 11.3 0.00 0.00 0.00 34 1018.8
20260503193021 9 284 6.4 14.5 0.00 0.00 0.00 34 1018.8
20260503192024 10 283 6.4 17.7 0.00 0.00 0.00 34 1019.0
20260503191021 10 226 3.2 17.7 0.00 0.00 0.00 33 1019.2
20260503190022 10 282 3.2 12.9 0.00 0.00 0.00 32 1019.4
20260503185021 10 287 6.4 11.3 0.00 0.00 0.00 34 1019.3
20260503184021 8 337 6.4 16.1 0.00 0.00 0.00 36 1019.5
20260503183022 7 306 9.7 22.5 0.00 0.00 0.00 36 1019.5
20260503182021 8 332 6.4 20.9 0.00 0.00 0.00 38 1019.3
20260503181024 9 47 6.4 11.3 0.00 0.00 0.00 36 1019.3
20260503180024 9 9 6.4 16.1 0.00 0.00 0.00 35 1019.3
20260503175021 9 285 8.0 19.3 0.00 0.00 0.00 35 1019.3
20260503174025 8 73 3.2 11.3 0.00 0.00 0.00 39 1019.3
20260503173022 8 44 6.4 11.3 0.00 0.00 0.00 39 1019.4
20260503172022 9 29 4.8 9.7 0.00 0.00 0.00 38 1019.4
20260503171024 8 135 3.2 11.3 0.00 0.00 0.00 37 1019.5